This is the latest recevied weather packets stored in our database for station/object VK5TRM-14. If no packets are shown the sender has not sent any weather packets the latest 10 day(s).
| Time | Temp. | Humidity | Pressure | Rain* | Wind** | Luminosity | Snow |
|---|---|---|---|---|---|---|---|
| 1778084105 | 10.56° C | 72% | 1025.9 hPa | 0 mm | - | - | - |
| 1778083206 | 11.11° C | 71% | 1025.7 hPa | 0 mm | - | - | - |
| 1778082305 | 11.11° C | 71% | 1025.7 hPa | 0 mm | - | - | - |
| 1778081405 | 12.22° C | 70% | 1025.5 hPa | 0 mm | - | - | - |
| 1778080505 | 12.22° C | 70% | 1025.5 hPa | 0 mm | - | - | - |
| 1778079604 | 12.78° C | 71% | 1025.2 hPa | 0 mm | - | - | - |
| 1778078705 | 12.78° C | 71% | 1025.2 hPa | 0 mm | - | - | - |
| 1778077806 | 12.78° C | 72% | 1024.8 hPa | 0 mm | - | - | - |
| 1778076905 | 12.78° C | 72% | 1024.8 hPa | 0 mm | - | - | - |
| 1778076005 | 13.33° C | 73% | 1024.7 hPa | 0 mm | - | - | - |
| 1778075105 | 13.33° C | 73% | 1024.7 hPa | 0 mm | - | - | - |
| 1778074205 | 13.33° C | 76% | 1024.4 hPa | 0 mm | - | - | - |
| 1778073305 | 13.33° C | 76% | 1024.4 hPa | 0 mm | - | - | - |
| 1778072405 | 13.33° C | 78% | 1024.3 hPa | 0 mm | - | - | - |
| 1778071505 | 13.33° C | 78% | 1024.3 hPa | 0 mm | - | - | - |
| 1778070605 | 13.33° C | 77% | 1024 hPa | 0 mm | - | - | - |
| 1778069705 | 13.33° C | 77% | 1024 hPa | 0 mm | - | - | - |
| 1778068805 | 13.89° C | 81% | 1023.8 hPa | 0 mm | - | - | - |
| 1778067905 | 13.89° C | 81% | 1023.8 hPa | 0 mm | - | - | - |
| 1778067005 | 13.89° C | 82% | 1023.4 hPa | 0 mm | - | - | - |
| 1778066105 | 13.89° C | 82% | 1023.4 hPa | 0 mm | - | - | - |
| 1778065205 | 13.89° C | 83% | 1023 hPa | 0 mm | - | - | - |
| 1778064305 | 13.89° C | 83% | 1023 hPa | 0 mm | - | - | - |
| 1778063405 | 13.33° C | 82% | 1022.6 hPa | 0 mm | - | - | - |
| 1778062505 | 13.33° C | 82% | 1022.6 hPa | 0 mm | - | - | - |
* Rain since midnight (hover to see other rain measurements)
** Current wind speed in m/s (hover to see current wind gust speed)